Location: Newark
(7.0858°N, 171.3717°E)
Time: 14:00:11
(UTC+00:00)

Vanguard 3 - Pass Details

Date: 29 November 2020
Orbit: 508 x 3262 km, 33.4° (Epoch: 14 January)

Event Time Altitude Azimuth Distance (km) Brightness Sun altitude
Exits shadow 17:19:43 21° 279° (W) 3,374 9.7 -17.3°
Maximum altitude 17:28:00 53° 212° (SSW) 2,791 9.7 -15.4°
Drops below altitude 10° 17:45:29 10° 141° (SE) 6,059 12.6 -11.3°
Sets 17:50:50 0° 136° (SE) 7,204 13.3 -10.1°
